CW3081 Weather Reports


Display with metric or nautical units.
time (UTC)temp
F
wind
direction
speed
MPH
gust
MPH
rain 1hr
in
rain 24hr
in
rain mn
in
humidity
%
barometer
mb
20260901024555 76 0 0.0 0.0 0.00 0.00 0.00 92 1018.2
20260901023051 76 0 0.0 0.0 0.00 0.00 0.00 92 1018.2
20260901021550 77 0 0.0 0.0 0.00 0.00 0.00 92 1018.3
20260901014555 77 0 0.0 0.0 0.00 0.00 0.00 90 1018.0
20260901013050 78 0 0.0 0.0 0.00 0.00 0.00 90 1017.9
20260901011550 78 0 0.0 0.0 0.00 0.00 0.00 89 1017.7
20260901010052 79 0 0.0 0.0 0.00 0.00 0.00 88 1017.6
20260901004605 80 0 0.0 0.0 0.00 0.00 0.00 87 1017.6
20260901003052 81 0 0.0 0.0 0.00 0.00 0.00 85 1017.6
20260901001549 82 0 0.0 0.0 0.00 0.00 0.00 83 1017.7
20260901000113 83 0 0.0 0.0 0.00 0.00 0.00 81 1017.8
20260831234556 84 0 0.0 0.0 0.00 0.00 0.00 80 1017.9
20260831233051 85 0 0.0 0.0 0.00 0.00 0.00 77 1018.0
20260831231552 86 0 0.0 0.0 0.00 0.00 0.00 74 1017.9
20260831230059 87 0 0.0 0.0 0.00 0.00 0.00 72 1018.1
20260831224555 88 0 0.0 0.0 0.00 0.00 0.00 71 1018.2
20260831223057 89 0 0.0 0.0 0.00 0.00 0.00 74 1018.1
20260831221550 89 0 0.0 0.0 0.00 0.00 0.00 65 1018.1
20260831220048 90 0 0.0 0.0 0.00 0.00 0.00 67 1018.3
20260831214554 89 0 0.0 0.0 0.00 0.00 0.00 62 1018.2
20260831213056 89 0 0.0 0.0 0.00 0.00 0.00 61 1018.4
20260831211557 89 0 0.0 0.0 0.00 0.00 0.00 65 1018.6
20260831210053 89 0 0.0 1.0 0.00 0.00 0.00 65 1018.6
20260831204550 89 27 0.0 1.0 0.00 0.00 0.00 63 1018.7
20260831203106 90 0 0.0 1.0 0.00 0.00 0.00 62 1018.6
20260831201550 90 0 0.0 2.0 0.00 0.00 0.00 63 1018.7
20260831200059 90 317 0.0 1.0 0.00 0.00 0.00 66 1018.9
20260831194628 90 294 0.0 2.0 0.00 0.00 0.00 62 1019.1
20260831193050 90 70 0.0 1.0 0.00 0.00 0.00 60 1019.3
20260831191555 90 360 0.0 2.0 0.00 0.00 0.00 63 1019.4
20260831190123 89 0 0.0 2.0 0.00 0.00 0.00 62 1019.5
20260831184604 89 32 1.0 2.0 0.00 0.00 0.00 67 1019.7
20260831183108 89 0 0.0 1.0 0.00 0.00 0.00 65 1019.9
20260831181551 90 0 0.0 3.0 0.00 0.00 0.00 65 1020.0
20260831180101 89 0 0.0 2.0 0.00 0.00 0.00 64 1020.3
20260831174554 87 202 0.0 1.0 0.00 0.00 0.00 69 1020.6
20260831173049 84 0 0.0 0.0 0.00 0.00 0.00 80 1020.7
20260831171559 85 0 0.0 0.0 0.00 0.00 0.00 73 1020.8
20260831170056 86 0 0.0 0.0 0.00 0.00 0.00 73 1020.9
20260831164559 87 0 0.0 1.0 0.00 0.00 0.00 72 1021.0
20260831163051 87 0 0.0 2.0 0.00 0.00 0.00 72 1021.0
20260831161602 85 0 0.0 2.0 0.00 0.00 0.00 74 1021.1
20260831160104 86 255 0.0 2.0 0.00 0.00 0.00 72 1021.1
20260831154706 86 0 0.0 1.0 0.00 0.00 0.00 74 1021.0
20260831153051 85 0 0.0 2.0 0.00 0.00 0.00 74 1020.9
20260831151601 84 264 0.0 1.0 0.00 0.00 0.00 77 1021.0
20260831150057 83 256 0.0 2.0 0.00 0.00 0.00 77 1020.7